Regional Weather Roundup
Issued by NWS

Home | Current Version | Previous Version | Text Only | Print | Product List | Glossary Off
Versions: 1 2 3 4 5 6 7 8 9 10 11 12 13 14 15 16 17 18 19 20 21 22 23 24 25 26 27 28 29 30 31 32 33 34 35 36 37 38 39 40 41 42 43 44 45 46 47 48 49 50

000
ASUS45 KTFX 242110
RWRMT
MONTANA REGIONAL WEATHER ROUNDUP
NATIONAL WEATHER SERVICE GREAT FALLS MT
300 PM MDT SUN SEP 24 2017

NOTE: "FAIR" INDICATES FEW OR NO CLOUDS BELOW 12000 FEET WITH NO
SIGNIFICANT WEATHER AND/OR OBSTRUCTIONS TO VISIBILITY.

MTZ001>007-043-242200-
WEST OF THE DIVIDE

CITY           SKY/WX    TMP DP  RH WIND       PRES   REMARKS
KALISPELL      PTSUNNY   59  37  44 W7        30.07F
MISSOULA       SUNNY     59  36  42 NW5       30.08F
BUTTE          CLOUDY    48  29  47 CALM      30.09S
MULLAN PASS    CLOUDY    43  32  65 VRB5      30.12S
ANACONDA         N/A     48  28  46 NW5       30.09S
DEER LODGE       N/A     52  27  37 NE5       30.10F
EUREKA           N/A     61  37  41 MISG      30.05F
HAMILTON         N/A     55  30  38 N3        30.09F
LIBBY            N/A     63  36  36 SE3       30.04F
PLAINS           N/A     59  37  43 CALM      30.08F
THOMPSON FALLS   N/A     63  39  41 W6        30.10F
$$

MTZ008-052>055-242200-
SOUTHWEST MONTANA

CITY           SKY/WX    TMP DP  RH WIND       PRES   REMARKS
BOZEMAN        CLOUDY    51  32  48 VRB6      30.08F
DILLON         PTSUNNY   48  28  46 W3        30.07S
W YELLOWSTONE  CLOUDY    45  27  49 MISG      30.03F
ENNIS          CLOUDY    45  28  53 N10       30.11S
THREE FORKS      N/A     54  27  35 NE3       30.07S
TWIN BRIDGES     N/A     54  23  30 N8        30.04F
$$

MTZ009-010-012-014-046-048-049-054-242200-
EAST SLOPES AND CENTRAL MONTANA

CITY           SKY/WX    TMP DP  RH WIND       PRES   REMARKS
CUT BANK       SUNNY     58  23  26 VRB3      30.03F
GREAT FALLS    SUNNY     56  27  32 CALM      30.06F
MALMSTROM AFB  SUNNY     56  27  33 NW3       30.06F
HELENA         SUNNY     57  25  29 NE7       30.06F
BOWMANS CRNR     N/A     52  24  32 S6        30.04F
CHOTEAU          N/A     57  27  30 VRB6      30.06F
FAIRFIELD        N/A     56  28  33 W7        30.05F
POWER            N/A     55  26  32 CALM      30.05F
RAYNESFORD       N/A     54  28  35 CALM      30.06F
ULM              N/A     56  28  33 SE8       30.06F
$$

MTZ011-013-016-021-045-047-050-051-242200-
NORTH CENTRAL MONTANA

CITY           SKY/WX    TMP DP  RH WIND       PRES   REMARKS
HAVRE          MOSUNNY   59  39  47 SE9       30.06F
LEWISTOWN      CLOUDY    50  34  54 E5        30.09S
N BAR RANCH    CLOUDY    48  32  53 S5        30.12S
CHINOOK          N/A     57  37  47 CALM      30.07F
DENTON           N/A     53  31  42 E10       30.04F
GEYSER         PTSUNNY   53  25  34 CALM      30.07S
JUDITH GAP     PTSUNNY   46  36  68 S12       30.09S
WINIFRED       CLOUDY    53  33  48 SE5       30.07F
$$

MTZ017>020-022>027-061-062-242200-
NORTHEAST MONTANA

CITY           SKY/WX    TMP DP  RH WIND       PRES   REMARKS
GLASGOW        CLOUDY    53  37  54 NW6       30.11R
JORDAN           N/A     51  38  60 SE6       30.11S
SIDNEY         CLOUDY    47  43  86 SE3       30.12S
WOLF POINT     CLOUDY    56  34  43 N7        30.11R
MALTA          SUNNY     59  34  38 SE6       30.09S
PLENTYWOOD       N/A     50  37  62 CALM      30.11R
POPLAR           N/A     52  37  58 NE8       30.11S
SCOBEY           N/A     53  31  43 N7        30.08S
$$

MTZ028>42-056>058-242200-
SOUTHCENTRAL AND SOUTHEAST MONTANA

CITY           SKY/WX    TMP DP  RH WIND       PRES   REMARKS
BAKER          CLOUDY    43  40  89 N9        30.12R
BILLINGS       PTSUNNY   53  34  48 NE7       30.10S
LIVINGSTON     CLOUDY    48  36  63 NE9       30.08S
MILES CITY     CLOUDY    49  38  65 E8        30.12S
BIG TIMBER     CLOUDY    46  36  66 E7        30.12S
EKALAKA          N/A     41  37  85 NW1       30.07S
HARLOWTON      PTSUNNY   49  35  58 MISG      30.09S
LAUREL           N/A     50  36  57 VRB5      30.10F
ROUNDUP          N/A     54  35  48 S3        30.00F
$$

REGIONAL REPORTS...DAKOTAS

CITY           SKY/WX    TMP DP  RH WIND       PRES   REMARKS
WILLISTON      CLOUDY    48  41  76 N7        30.11S
MINOT          CLOUDY    51  45  79 NW12      30.05R
DICKINSON      CLOUDY    47  41  80 NW10      30.07R
BEACH          CLOUDY    45  43  93 N7        30.14S
CROSBY         CLOUDY    50  41  71 N9        30.10S
TIOGA          CLOUDY    48  45  87 N8        30.10S
BISMARCK       CLOUDY    52  47  83 N15G24    30.04R
GRAND FORKS    LGT RAIN  53  52  96 NW15      29.89R
FARGO          LGT RAIN  55  54  96 NW14      29.88R
BUFFALO SD       N/A     48  41  76 N12       30.02S
RAPID CITY     CLOUDY    52  43  71 N18       30.06F
$$

REGIONAL REPORTS...WYOMING/IDAHO/WASHINGTON

CITY           SKY/WX    TMP DP  RH WIND       PRES   REMARKS
GILLETTE       CLOUDY    43  39  86 NE12      30.09R
SHERIDAN       CLOUDY    47  39  74 NE6       30.10S
BUFFALO WY     CLOUDY    43  35  73 N9        30.10F
CODY           CLOUDY    44  32  62 N6        30.10R
IDAHO FALLS      N/A     57  34  41 NW17      29.98S
SALMON         CLOUDY    58  28  32 VRB6      30.07F HAZE
BOISE          SUNNY     65  28  24 NW18G25   30.00F
SPOKANE        MOSUNNY   64  38  38 VRB5      30.08F
$$

REGIONAL REPORTS...ALBERTA

CITY           SKY/WX    TMP DP  RH WIND       PRES   REMARKS
EDMONTON       MOSUNNY   61  41  48 S7        29.94F
CALGARY        MOSUNNY   61  32  33 S5        29.98F
LETHBRIDGE     MOSUNNY   59  30  33 SE5       30.01F
MEDICINE HAT   MOSUNNY   61  36  39 VRB5      30.03F
$$

REGIONAL REPORTS...SASKATCHEWAN

CITY           SKY/WX    TMP DP  RH WIND       PRES   REMARKS
SWIFT CURRENT    N/A     57  32  38 S7        30.06F
REGINA         PTSUNNY   54  32  43 N7        30.10R
SASKATOON      PTSUNNY   59  37  44 SE5       30.09S
$$



USA.gov is the U.S. government's official web portal to all federal, state and local government web resources and services.